Regional Weather Roundup
Issued by NWS Wakefield, VA

Home | Current Version | Previous Version | Text Only | Print | Product List | Glossary Off
Versions: 1 2 3 4 5 6 7 8 9 10 11 12 13 14 15 16 17 18 19 20 21 22 23 24 25 26 27 28 29 30 31 32 33 34 35 36 37 38 39 40 41 42 43 44 45 46 47 48 49 50

000
ASUS41 KAKQ 282114
RWRAKQ

REGIONAL WEATHER ROUNDUP
NATIONAL WEATHER SERVICE WAKEFIELD VA
500 PM EDT SAT MAR 28 2015

Note: "fair" indicates few or no clouds below 12,000 feet with no
significant weather and/or obstructions to visibility. * = Denotes
station may not report precipitation (e.g., rain,snow,etc.),
thunder or fog.

VAZ042-051-052>054-056-282200-
NORTHERN VIRGINIA

CITY           SKY/WX    TMP DP  RH WIND       PRES   REMARKS
WASH NATIONAL  PTSUNNY   37  12  35 W18G28    30.07R
DULLES         PTSUNNY   34  10  37 NW23      30.07R WCI  22
FORT BELVOIR   PTSUNNY   35   9  33 W22       30.08R WCI  24
QUANTICO       PTSUNNY   36   8  31 NW18G32   30.10R
FREDERICKSBRG* MOSUNNY   36   8  32 NW14G28   30.09R
STAFFORD*      MOSUNNY   32   4  30 W14G22    30.13R WCI  22
WARRENTON      MOSUNNY   36  17  45 NW12G24   30.09R
CULPEPER*      MOSUNNY   34   7  32 N15       30.10R WCI  24
MANASSAS*      PTSUNNY   36  10  35 NW20G28   30.09R WCI  25
LEESBURG*      CLOUDY    34  14  44 NW14G25   30.08R WCI  24
WINCHESTER     PTSUNNY   32   3  29 NW21G29   30.07R WCI  20
FRONT ROYAL*   CLOUDY    30   9  40 NW12G18   30.08S WCI  21
LURAY*         FAIR      32  10  40 N15G25    30.08S WCI  22
$$

VAZ048-049-060>072-079>083-282200-
CENTRAL AND SOUTH CENTRAL VIRGINIA

CITY           SKY/WX    TMP DP  RH WIND       PRES   REMARKS
RICHMOND       PTSUNNY   44  10  25 NW20G28   30.04R
CHESTERFIELD*  MOCLDY    41   9  26 NW17G23   30.06R
PETERSBURG*    PTSUNNY   43  10  25 W12G22    30.05R
HANOVER        PTSUNNY   40  10  29 VRB6      30.06R
TAPPAHANNOCK*  MOSUNNY   39   3  23 NW13G21   30.05R
QUINTON*       FAIR      39  10  30 NW8G23    30.04R
CHARLOTTSVILLE MOSUNNY   35   5  28 N13G28    30.08R
GORDONSVILLE*  FAIR      34   7  32 NW8G22    30.08R
ORANGE*        SUNNY     34  10  37 W15G22    30.11R WCI  24
LOUISA*        MOSUNNY   36  10  35 N14G20    30.05R
BUMPASS*       FAIR      36  10  34 NW9G23    30.06R
FARMVILLE*     PTSUNNY   44   9  23 W3        30.03S
CREWE*         MOCLDY    42  10  26 MISG      30.04R
FORT PICKETT*  FAIR      40  12  32 W12G21    30.03S
CHASE CITY*    FAIR      43  15  32 NW15G23   30.05R
CLARKSVILLE*   FAIR      43  14  31 W10G22    30.04R
SOUTH HILL*    PTSUNNY   41  15  33 NW6       30.10R
LAWRENCEVILLE* CLOUDY    41  20  42 NW10      30.04R
EMPORIA*       CLOUDY    37  21  52 NW8       30.07R
$$

VAZ088>098-282200-
SOUTHEAST VIRGINIA

CITY           SKY/WX    TMP DP  RH WIND       PRES   REMARKS
NORFOLK        CLOUDY    39  16  39 NW9       30.03R
VIRGINIA BEACH PTSUNNY   42  20  41 W16G25    30.02R
NORFOLK NAVAL  PTSUNNY   45  18  34 W17       30.05R
WEST POINT*    MOSUNNY   43   2  18 NW10G22   30.05R
SALUDA*        FAIR      38  13  35 NW15G26   30.03R
NEWPORT NEWS   PTSUNNY   45  16  31 NW14      30.03R
LANGLEY AFB    PTSUNNY   41  16  36 NW14G20   30.02R
FORT EUSTIS    MOSUNNY   41  17  38 NW13      30.02R
WILLIAMSBURG*  MOSUNNY   45  16  31 W16G23    30.04R
HR EXEC AP*    CLOUDY    39  19  45 NW8G17    30.06R
FRANKLIN*      CLOUDY    38  19  45 NW10      30.06R
WAKEFIELD      CLOUDY    40  16  37 VRB6      30.04R
$$

VAZ020-022-025-037-045-282200-
WEST CENTRAL AND SOUTHWEST VIRGINIA

CITY           SKY/WX    TMP DP  RH WIND       PRES   REMARKS
STAUNTON*      MOSUNNY   33   5  31 NW14G20   30.09R WCI  23
WAYNESBORO*    FAIR      31   5  33 NW15G24   30.05R WCI  21
HOT SPRINGS VA MOSUNNY   20   4  52 NW13G25   29.91R WCI   7
LYNCHBURG      SUNNY     37   7  28 NW7G16    30.06R
DANVILLE       SUNNY     45  11  25 W16G26    30.06R
SOUTH BOSTON*  FAIR      42   8  25 W14G25    30.07R
MARTINSVILLE   SUNNY     43  12  28 N14G21    30.08S
ROANOKE        MOSUNNY   36   6  28 NW16G25   30.10R
BLACKSBURG     SUNNY     30   6  36 NW10G21   30.08S WCI  21
DUBLIN*        SUNNY     35   9  33 W9G16     30.07R
MARION*        SUNNY     34   4  28 W20G29    30.07R WCI  23
HILLSVILLE*    SUNNY     32   9  37 NW22      30.01R WCI  20
RICHLANDS*     FAIR      32   5  32 NW10G17   30.08R WCI  23
WISE*          SUNNY     36   9  32 NW12      30.11R
ABINGDON*      MOSUNNY   37   8  29 N8        30.11R
$$

MDZ021>025-VAZ099-100-282200-
SOUTHERN MARYLAND AND THE DELMARVA PENINSULA

CITY           SKY/WX    TMP DP  RH WIND       PRES   REMARKS
PATUXENT RIVER PTSUNNY   36  10  34 N24       30.03R WCI  24
BAY BRIDGE APT   N/A     34  18  51 NW18G28   30.04R WCI  23
LEONARDTOWN    PTSUNNY   34   9  35 NW10G25   30.06R
DOVER          PTSUNNY   36  21  54 W24       29.97R WCI  24
GEORGETOWN     PTSUNNY   35  21  56 NW10G18   29.98R
EASTON         NOT AVBL
CAMBRIDGE      MOSUNNY   36  18  48 W14G25    30.02R
SALISBURY      CLOUDY    35  17  47 W16G28    30.00R
OCEAN CITY     CLOUDY    36  20  52 NW16G22   29.99R
WALLOPS ISLAND CLOUDY    36  14  40 NW20G26   30.01R
ACCOMACK*      SUNNY     37  10  32 NW21G33   30.02R
$$

NCZ012>017-030>032-282200-
NORTH CENTRAL AND EASTERN NORTH CAROLINA

CITY           SKY/WX    TMP DP  RH WIND       PRES   REMARKS
ROANOKE RAPIDS FAIR      43  18  36 W8G20     30.05R
RALEIGH        MOSUNNY   45  12  26 NW12G21   30.05R
ELIZABETH CITY PTSUNNY   41  28  60 W12       30.05R
AHOSKIE*       CLOUDY    39  20  46 NW5       30.06R
EDENTON*       CLOUDY    43  26  52 NW13      30.05R
CURRITUCK*     CLOUDY    40  25  56 W14G20    30.05R
KILL DEVIL HLS DRIZZLE   40  29  64 NW9G16    30.02R
MANTEO         CLOUDY    43  29  56 NW8G16    30.03S
CAPE HATTERAS  MOSUNNY   45  32  60 NW10G17   30.03R
TARBORO*       FAIR      45  17  32 NW8       30.06R
GOLDSBORO      SUNNY     47  23  38 NW15      30.03R
WASHINGTON     PTSUNNY   44  24  45 NW7G16    30.04R
GREENVILLE     MOSUNNY   45  19  36 NW14      30.06R
NEW BERN       MOSUNNY   48  24  39 NW17G23   30.03R
WILMINGTON     MOSUNNY   53  27  36 W14G23    30.02R
$$

VAZ048-282200-
ELSEWHERE

CITY           SKY/WX    TMP DP  RH WIND       PRES   REMARKS
HARRISBURG PA  PTSUNNY   29  20  69 N9        30.01R
BALTIMORE      PTSUNNY   33  14  45 NW18G24   30.03R WCI  22
ANNAPOLIS      CLOUDY    34  16  47 NW16      30.04R WCI  24
ANDREWS AFB    MOSUNNY   33  12  41 NW18G31   30.04R WCI  22
PHILADELPHIA   CLOUDY    39  10  30 NW17G28   29.94R
HENDERSON NC   SUNNY     43   8  23 NW9       30.04S
GREENSBORO     MOSUNNY   45   8  22 N14G22    30.04R
ROCKY MOUNT    SUNNY     45  15  30 NW15      30.05R
$$

VAZ100-282200-
MARINE

STATION/POSITION TIME  TEMP    WIND        PRES    WAVE   SWELL
                       AIR SEA DIR/SP/G            HT/PER HT/PER
                 (UTC) (F)     (DEG/KT/KT) (MB)    (FT/S) (FT/S)
BRANDYWINE LGT   2000   33 40  300/ 25/ 29 1013.7R
CAPE MAY NJ      2000   34 43  300/ 20/ 26 1013.2R
LEWES DE         2000   35 43  300/ 13/ 27 1014.1R
15NM E FENWICK I 2050   34 40              1013.9R   4/ 5
OCEAN-CITY-INLET 2000   35 40  300/ 14/ 21 1014.2R
WACHAPREAGUE VA  2000   38 47  310/  7/ 18 1015.5R
THOMAS POINT MD  2100                        N/A
COVE POINT MD    2000   33     350/ 24/ 29 1015.9R
SOLOMONS ISLAND  2000      44                N/A
BISHOPS HEAD MD  2018          310/ 19/ 22   N/A
PINEY POINT MD   2000          320/ 25/ 28   N/A
CAMBRIDGE MD     2000   34 44  310/ 14/ 19 1015.8R
LEWISETTA VA     2000   35 46              1016.8R
RAPPAHANNOCK LGT 2000          330/ 20/ 24 1016.1S
STINGRAY PT      2100   39 45  330/ 17/ 25   N/A     2/ 3
YORK RVR RNG VA  2000   39     310/ 18/ 20 1015.4R
YORKTOWN VA      2000   38 47  290/ 17/ 24 1015.9R
DOMINION TERM VA 2000   38     300/ 14/ 18 1016.2R
KIPTOPEKE VA     2000      49  300/ 17/ 20   N/A
CHES BAY BRIDGE  2000   38 44  280/ 13/ 16 1015.8R
CAPE HENRY VA    2000   38     290/ 13/ 16 1014.8R
CHESAPEAKE LGHT  2000   38     300/ 18/ 20 1016.8R
WILLOUBY STN VA  2000   38     300/ 13/ 18 1016.8R
S CRANEY ISL VA  2000          290/  9/ 12 1016.5R
CAPE HENRY BUOY  2028      40                N/A     5/ 5   2/11
1ST LANDING BUOY 2100   39     300/ 17/ 21 1016.5R   3/ 3
OFFSHORE WE BUOY 2011      41                N/A     5/ 4   3/11
64NM E OF VA BCH 2050   39 57  310/ 19/ 23 1015.7R   8/ 8
DUCK PIER NC     2000   40 42  290/ 14/ 18 1015.5R
44056 DUCK FRF   2011      42                N/A     5/ 8   2/11
OREGON INLET NC  2000   42 45  290/ 11/ 13 1016.2S
HATTERAS NC      2000   42 54  340/ 14/ 17 1016.6R
CAPE LOOKOUT NC  2100   50     280/ 10/ 13 1016.0R
$$


USA.gov is the U.S. government's official web portal to all federal, state and local government web resources and services.